Location: Breux
(46.3269°N, 3.2993°E)
Time: 02:09:52
(UTC+00:00)

Cosmos 1300 - Pass Details

Date: 09 April 2020
Orbit: 511 x 515 km, 82.5° (Epoch: 02 June)

Event Time Altitude Azimuth Distance (km) Brightness Sun altitude
Exits shadow 20:18:30 - 198° (SSW) 1,833 5.3 -18.5°
Reaches altitude 10° 20:18:45 10° 198° (SSW) 1,735 5.2 -18.5°
Maximum altitude 20:22:32 64° 280° (W) 575 3.1 -19.0°
Drops below altitude 10° 20:26:21 10° 3° (N) 1,752 5.8 -19.6°
Sets 20:28:30 0° 7° (N) 2,644 6.7 -19.9°
